Flag for Germany Weather past 2 weeks in Wunstorf, Lower Saxony, Germany

Now
50 °F

Cool.


Feels Like: 47 °F
Forecast: 51 / 63 °F
Wind: 7 mph from South

Location: Wunstorf Airport

Current Time: Apr 25, 2015 at 4:07:13 AM

Latest Report: Apr 25, 2015 at 3:20 AM


Visibility: 3 mi

Pressure: 29.77 "Hg

Humidity: 71%

Dew point: 41 °F

Location of WunstorfLocation

Historic Weather in Wunstorf — Graph

°F

Wunstorf temperature yesterday

Maximum temperature yesterday: 66 °F (at 3:20 PM)
Minimum temperature yesterday: 37 °F (at 5:20 AM)
Average temperature yesterday: 53 °F

Past Weeks' High & Low Weather Summary

 TemperatureHumidityPressure
High72 °F (Apr 15, 3:20 PM)100% (Apr 23, 5:20 AM)30.42 "Hg (Apr 23, 5:20 AM)
Low34 °F (Apr 14, 5:20 AM)28% (Apr 21, 5:20 PM)29.77 "Hg (Apr 25, 2:20 AM)
Average51 °F63%30.17 "Hg
* Reported Apr 10 2:20 AM — Apr 25 2:20 AM, Wunstorf, Weather by CustomWeather, © 2015

Note: Actual official high and low records may vary slightly from our data, if they occured in-between our weather recording intervals... More about our weather records

Advertising

Wunstorf weather history for previous 24 hours

 ConditionsComfort  
Time TempWeatherWind HumidityBarometerVisibility
2:20 AM
Sat, Apr 25
50 °FCool.7 mph67%29.77 "Hg3 mi
1:20 AM48 °FCool.7 mph71%29.80 "Hg3 mi
12:20 AM50 °FCool.7 mph67%29.80 "Hg3 mi
11:20 PM
Fri, Apr 24
52 °FCool.7 mph62%29.80 "Hg3 mi
10:20 PM54 °FCool.8 mph58%29.83 "Hg3 mi
9:20 PM55 °FRefreshingly cool.6 mph55%29.83 "Hg3 mi
8:20 PM63 °FMild.3 mph42%29.80 "Hg3 mi
7:20 PM66 °FMild.6 mph35%29.83 "Hg3 mi
6:20 PM66 °FMild.6 mph35%29.83 "Hg3 mi
5:20 PM66 °FMild.9 mph37%29.83 "Hg3 mi
4:20 PM66 °FMild.8 mph37%29.83 "Hg3 mi
3:20 PM66 °FMild.9 mph37%29.86 "Hg3 mi
2:20 PM64 °FMild.12 mph43%29.89 "Hg3 mi
12:20 PM61 °FRefreshingly cool.13 mph45%29.89 "Hg3 mi
11:20 AM59 °FScattered clouds.9 mph51%29.92 "Hg5 mi
10:20 AM55 °FPassing clouds.9 mph59%29.95 "Hg6 mi
9:20 AM52 °FCool.5 mph72%29.95 "Hg5 mi
8:20 AM45 °FQuite cool.3 mph87%29.95 "Hg5 mi
7:20 AM39 °FPassing clouds.3 mph93%29.95 "Hg4 mi
6:20 AM37 °FFog.5 mph93%29.95 "Hg4 mi
5:20 AM37 °FFog.2 mph93%29.95 "Hg5 mi
4:20 AM39 °FChilly.1 mph93%29.98 "Hg2 mi
Weather by CustomWeather, © 2015

See weather overviewHow to use our weather pages